Flag for Greece Weather past 2 weeks in Kalamata, Greece

61 °F

Broken clouds.

Feels Like: 61 °F
Forecast: 58 / 62 °F
Wind: 5 mph from South

Location: Kalamata Airport

Current Time: Nov 27, 2015 at 2:10:24 PM

Latest Report: Nov 27, 2015 at 1:20 PM

Visibility: 4 mi

Pressure: 29.71 "Hg

Humidity: 88%

Dew point: 57 °F

Location of KalamataLocation

Historic Weather in Kalamata — Graph


Kalamata temperature yesterday

Maximum temperature yesterday: 66 °F (at 11:20 AM)
Minimum temperature yesterday: 52 °F (at 6:50 AM)
Average temperature yesterday: 58 °F

Past Weeks' High & Low Weather Summary

High77 °F (Nov 12, 12:20 PM)100% (Nov 18, 6:50 AM)30.30 "Hg (Nov 18, 6:50 AM)
Low48 °F (Nov 17, 7:20 AM)32% (Nov 12, 12:50 PM)29.59 "Hg (Nov 25, 10:50 PM)
Average63 °F75%30.01 "Hg
* Reported Nov 12 12:20 PM — Nov 27 12:50 PM, Kalamata, Weather by CustomWeather, © 2015

Note: Actual official high and low records may vary slightly from our data, if they occured in-between our weather recording intervals... More about our weather records


Kalamata weather history for previous 24 hours

Time TempWeatherWind HumidityBarometerVisibility
12:50 PM
Fri, Nov 27
61 °FRain. Broken clouds.5 mph83%29.71 "Hg4 mi
12:20 PM59 °FLight rain. Broken clouds.No wind88%29.71 "Hg4 mi
11:50 AM61 °FBroken clouds.5 mph83%29.68 "Hg5 mi
11:20 AM57 °FBroken clouds.6 mph88%29.71 "Hg5 mi
10:50 AM59 °FThunderstorms. Broken clouds.13 mph77%29.71 "Hg3 mi
10:20 AM64 °FBroken clouds.14 mph68%29.65 "Hg5 mi
9:50 AM64 °FBroken clouds.12 mph64%29.68 "Hg5 mi
8:20 AM59 °FBroken clouds.6 mph77%29.65 "Hg5 mi
7:50 AM59 °FRain. Broken clouds.5 mph77%29.65 "Hg5 mi
6:50 AM57 °FPartly cloudy.9 mph88%29.65 "Hg5 mi
5:50 AM55 °FLight rain. Partly cloudy.10 mph88%29.65 "Hg4 mi
5:20 AM55 °FRain. Partly cloudy.7 mph88%29.65 "Hg4 mi
4:50 AM54 °FPartly cloudy.6 mph88%29.65 "HgN/A
3:50 AM54 °FLight rain. Partly cloudy.No wind94%29.65 "Hg5 mi
2:50 AM55 °FPartly cloudy.No wind94%29.65 "HgN/A
1:50 AM54 °FPartly cloudy.No wind94%29.68 "HgN/A
12:50 AM55 °FRain. Partly cloudy.6 mph94%29.65 "Hg4 mi
11:50 PM
Thu, Nov 26
54 °FPartly cloudy.No wind94%29.65 "HgN/A
10:50 PM55 °FThunderstorms. Partly cloudy.6 mph88%29.65 "Hg4 mi
9:50 PM55 °FLight rain. Partly cloudy.No wind82%29.62 "HgN/A
8:50 PM55 °FPartly cloudy.No wind82%29.62 "HgN/A
7:50 PM55 °FPartly cloudy.No wind82%29.62 "HgN/A
7:20 PM54 °FPartly cloudy.No wind82%29.65 "HgN/A
6:50 PM57 °FPartly cloudy.5 mph67%29.65 "HgN/A
6:20 PM55 °FPartly cloudy.5 mph77%29.62 "HgN/A
5:50 PM55 °FLight rain. Partly cloudy.8 mph77%29.62 "Hg5 mi
5:20 PM55 °FLight rain. Partly cloudy.6 mph82%29.65 "Hg5 mi
4:50 PM54 °FLight rain. Broken clouds.7 mph88%29.62 "Hg4 mi
4:20 PM54 °FThunderstorms. Broken clouds.No wind88%29.65 "Hg3 mi
3:50 PM59 °FThunderstorms. Broken clouds.No wind77%29.62 "Hg4 mi
3:20 PM61 °FPartly sunny.No wind68%29.59 "HgN/A
2:50 PM63 °FPartly sunny.No wind59%29.62 "HgN/A
2:20 PM64 °FPartly sunny.5 mph56%29.62 "HgN/A
Weather by CustomWeather, © 2015

See weather overviewHow to use our weather pages